Wind_Speed
9 8 8 9 8 8 8 8 8 8 8 7 7 7 7 7 7 7 7 7 7 7 6 6 6 6 6 6 6 7 7 7 6 5 5 5 4 4 4 3 3 2 2 2 2 1 1 2 3 3 4 4 4 4 4 4 5 5 5 5 5 5 6 6 6 7 7 8 8 9 9 9 9 9 9 8 7 7 6 7 6 6 6 7 8
9 8 8 8 7 7 7 7 7 7 7 7 7 7 7 7 7 7 7 7 7 6 5 6 6 6 6 6 6 6 7 6 6 5 5 5 5 4 5 5 4 3 1 1 1 0 1 1 2 3 3 4 4 5 5 5 5 5 5 5 6 6 6 7 7 8 8 8 9 10 10 10 10 9 9 8 7 7 7 7 7 7 7 7 9
8 7 7 7 6 6 6 6 6 6 6 6 6 6 6 6 6 7 7 7 6 6 5 5 6 6 6 6 6 6 6 5 5 5 5 5 5 4 4 5 5 4 2 1 1 0 1 1 1 1 2 3 4 4 4 5 5 6 6 6 6 7 7 8 8 8 9 10 10 10 10 11 11 10 10 9 7 7 7 7 7 7 7 8 8
7 6 6 6 6 6 5 5 5 5 6 6 5 6 5 6 5 5 6 6 6 5 4 5 5 5 6 6 6 6 6 5 5 5 5 5 5 4 3 3 4 4 3 2 2 1 1 1 1 2 2 3 3 4 4 5 5 5 6 6 7 7 8 8 8 9 10 10 10 10 10 11 11 11 10 9 8 8 8 7 7 7 8 8 8
6 5 5 5 5 5 5 5 4 5 5 5 5 5 4 5 4 4 5 5 6 5 4 5 5 4 5 6 6 5 5 5 5 5 5 5 5 4 3 3 2 3 3 4 3 3 3 3 3 3 4 4 5 5 5 5 5 5 6 7 7 8 8 9 9 10 11 11 10 10 11 11 11 11 10 9 9 9 9 9 8 8 9 9 9
5 5 4 4 4 4 4 4 4 4 4 4 4 4 4 4 3 4 4 4 5 5 4 5 5 4 5 5 6 5 5 5 5 5 5 5 5 4 3 3 2 1 2 4 4 4 4 4 4 4 5 6 6 6 5 5 6 7 7 8 8 9 9 9 10 10 10 10 10 10 11 11 11 11 10 9 9 9 10 10 9 9 10 10 10
5 4 4 4 4 4 4 4 4 3 3 3 3 3 3 3 3 3 3 4 4 4 4 4 4 5 5 5 5 4 4 5 4 4 5 5 4 4 3 3 2 2 1 2 3 3 3 3 4 4 5 5 6 6 6 5 6 7 8 8 9 9 9 9 10 10 10 10 10 10 10 10 10 10 10 9 9 10 10 10 10 10 10 10 10
5 4 4 3 4 4 4 4 3 4 3 3 3 3 2 2 2 2 3 3 3 3 4 4 4 4 4 4 4 3 3 3 3 3 4 4 3 4 3 3 2 2 2 1 1 2 3 3 3 4 4 5 5 5 5 5 6 7 7 7 8 8 8 8 9 9 9 9 9 9 9 9 10 10 10 9 10 10 11 11 11 11 11 11 11
5 4 3 3 3 4 4 4 4 4 3 3 2 2 2 2 2 2 2 2 2 4 4 4 4 3 3 3 3 3 2 2 2 2 2 2 2 3 3 2 2 2 2 1 1 1 3 4 4 4 4 4 5 5 5 5 5 6 6 6 7 7 7 7 8 8 8 8 8 8 9 9 10 10 10 10 11 11 11 11 12 12 13 13 13
3 3 2 3 3 3 4 4 4 4 3 3 3 2 2 2 2 2 1 1 2 3 4 4 4 3 3 4 3 2 2 2 1 1 1 1 2 2 2 2 2 2 1 1 1 0 2 4 5 5 5 5 5 5 5 5 5 5 5 6 6 7 7 7 8 9 9 9 9 9 10 10 10 10 11 11 11 11 12 12 12 12 13 13 14
3 2 2 2 2 3 4 4 4 4 3 3 3 3 3 2 2 2 1 1 1 2 3 3 3 3 3 3 3 2 1 1 1 1 1 1 2 1 1 2 2 1 1 1 1 1 1 2 4 4 4 5 5 5 6 6 6 6 6 6 7 7 7 8 8 9 9 9 10 10 10 10 10 11 11 11 12 12 12 12 13 13 13 14 14
3 2 2 2 2 3 3 3 3 3 3 3 3 4 3 3 2 2 1 1 1 1 1 2 2 2 3 3 2 1 1 1 1 1 1 1 2 1 1 2 2 2 1 1 0 1 1 2 2 2 3 5 6 6 5 6 6 6 7 7 7 7 8 8 8 9 9 9 10 10 10 10 11 11 11 12 12 12 13 13 13 14 14 14 14
2 2 2 2 2 2 3 3 3 3 3 3 3 3 3 3 2 1 1 1 1 1 1 1 1 1 2 2 2 1 1 1 1 2 2 2 2 2 1 1 2 2 2 1 1 1 1 1 2 2 2 4 5 6 6 6 6 6 7 7 7 8 8 8 9 9 9 10 10 10 10 11 11 12 12 13 13 13 13 14 14 14 14 15 15
3 3 2 2 3 2 2 2 2 2 3 3 3 3 2 2 1 1 2 2 1 2 2 1 1 1 2 1 2 3 2 1 2 2 3 2 2 2 2 1 2 2 2 1 1 1 1 1 2 3 3 4 4 5 6 5 6 8 8 8 8 8 8 9 9 9 10 10 10 11 11 12 13 13 13 14 14 15 15 15 15 16 16 16 16
3 3 3 3 3 3 2 2 2 2 2 3 3 3 2 2 1 1 2 2 3 3 2 1 1 2 1 1 2 3 3 2 2 2 3 2 1 3 2 1 3 2 1 1 1 1 2 2 2 3 3 4 4 4 5 5 7 9 8 7 7 8 8 9 9 10 10 11 11 12 12 13 14 14 15 15 16 16 16 16 16 16 17 17 17
4 4 4 4 4 3 3 2 2 2 2 3 3 3 3 2 2 1 1 1 3 3 2 2 2 3 2 1 1 2 2 3 3 2 3 3 2 3 3 1 2 2 1 1 2 2 1 1 1 2 3 3 4 4 5 5 7 8 8 7 7 8 8 9 10 11 11 12 12 13 14 14 15 15 16 16 17 17 17 17 16 16 16 16 16
5 5 4 4 4 4 3 3 3 3 3 3 3 3 3 3 2 2 1 0 2 2 2 1 2 3 3 2 1 2 3 3 3 2 1 4 3 3 3 1 2 2 1 1 2 2 1 1 1 1 2 3 4 4 5 5 6 7 8 8 8 8 9 10 10 11 12 12 13 13 14 14 15 16 16 16 16 16 16 16 15 15 15 14 15
6 5 5 5 5 4 4 3 3 3 3 2 2 3 3 3 3 3 2 0 1 1 1 1 2 2 2 2 2 2 3 3 2 1 1 2 1 3 3 1 2 3 1 0 0 0 1 1 0 0 1 2 3 4 4 5 5 6 6 7 9 9 9 10 10 11 11 12 13 13 13 14 14 15 15 15 16 16 15 15 14 14 13 13 14
6 6 6 5 5 5 4 3 3 3 3 2 2 2 3 3 3 3 2 1 1 1 0 1 1 1 1 1 1 2 3 3 2 2 2 2 1 1 4 2 3 3 2 2 2 2 2 2 1 1 1 2 3 4 4 5 6 6 6 7 8 9 10 10 10 11 12 13 13 14 14 14 14 15 15 15 15 15 15 14 13 13 13 13 14
6 6 6 6 5 5 5 4 3 3 3 3 2 2 2 3 3 3 3 2 2 1 1 1 1 1 1 1 1 2 2 2 2 1 1 2 1 1 3 3 3 4 3 2 3 3 3 2 2 2 2 3 4 4 4 5 6 6 7 8 9 10 10 10 11 12 12 13 13 13 14 15 15 15 15 14 14 14 13 13 13 13 13 13 14
6 5 6 6 6 6 5 5 4 4 4 3 3 2 2 3 3 3 3 3 2 2 2 2 2 1 1 1 1 1 1 1 1 1 1 1 1 2 3 2 2 3 3 3 3 2 2 2 1 2 3 3 5 6 5 6 7 7 8 10 10 10 10 10 10 11 11 11 11 12 13 14 14 14 13 12 12 12 13 13 13 14 14 14 15
6 6 6 6 7 6 6 5 5 5 4 3 3 3 3 3 3 3 3 3 2 3 3 3 3 2 1 1 1 1 0 0 0 1 2 1 2 0 2 2 1 3 3 4 2 1 1 1 1 2 3 4 5 6 6 6 7 8 9 11 11 11 10 10 10 10 10 10 11 11 12 12 12 12 11 11 12 13 13 14 14 14 15 15 15
6 6 6 6 7 7 6 6 5 5 5 4 4 4 4 4 4 4 4 3 3 3 3 3 3 3 3 3 2 2 2 1 0 1 1 1 2 2 2 3 2 2 3 3 2 1 1 1 1 3 3 4 5 6 6 5 6 9 11 11 11 11 10 11 10 10 10 10 10 11 11 11 11 12 12 12 13 14 14 15 15 15 15 15 14
7 6 6 7 7 7 7 7 6 6 5 5 4 4 4 4 4 4 4 4 3 3 4 3 4 5 4 4 3 3 2 2 2 2 1 1 2 2 3 2 1 2 4 2 1 1 1 1 2 3 3 5 6 7 7 4 5 11 12 10 10 10 10 10 10 10 9 10 10 11 11 11 11 12 12 12 13 14 14 14 14 14 14 14 13
8 8 7 7 8 8 8 8 7 7 6 5 5 5 4 4 5 5 4 4 4 4 4 4 4 5 4 3 3 3 2 2 2 1 1 1 0 2 3 2 1 2 3 3 1 2 1 1 1 2 4 5 6 6 7 5 6 11 12 9 9 11 11 10 10 9 9 9 10 10 11 11 11 11 12 13 13 14 14 14 14 13 13 13 13
10 9 8 8 8 8 9 9 8 8 7 7 6 6 6 5 5 5 5 4 4 4 4 4 4 5 4 4 4 4 3 2 2 1 1 1 1 2 3 4 3 1 3 2 1 1 1 1 1 2 4 6 6 6 7 6 6 12 12 8 8 11 12 10 9 8 8 8 9 10 11 11 12 12 13 13 14 14 14 13 13 13 13 13 15
10 9 8 8 8 8 9 9 9 9 9 8 7 7 7 6 6 6 5 5 5 5 4 4 5 4 4 4 4 4 4 3 2 2 1 1 2 2 3 3 3 2 1 1 1 1 1 1 1 2 4 6 6 5 7 7 7 12 12 8 8 11 11 8 7 8 8 9 10 10 12 12 13 13 13 14 14 13 13 13 13 14 15 16 19
10 10 9 9 9 9 9 9 10 10 10 9 9 8 8 7 7 7 7 7 6 5 5 5 5 5 5 4 4 4 4 4 3 2 2 2 2 2 3 3 3 3 2 0 0 0 0 1 0 1 4 7 6 6 7 6 8 12 10 8 7 8 8 7 8 9 10 10 11 11 13 13 13 14 14 14 13 13 13 13 14 15 18 20 22
11 11 10 10 10 9 10 10 10 11 10 10 10 9 8 8 7 8 8 8 6 6 6 5 5 5 5 5 4 4 4 4 4 3 2 3 3 3 3 3 3 3 2 2 2 2 2 3 3 1 3 6 6 6 6 6 9 11 9 8 7 6 7 8 10 11 10 11 12 12 13 14 14 14 14 13 13 13 13 14 16 18 21 22 23
13 12 11 11 10 10 10 10 10 11 11 11 11 10 9 8 8 8 9 8 7 7 7 6 6 6 5 5 4 4 4 4 5 4 3 4 4 4 3 3 3 4 4 3 3 4 3 5 5 4 4 6 6 6 7 6 9 11 9 7 7 6 7 8 11 12 11 11 12 13 13 13 13 13 13 13 13 13 14 16 18 21 22 22 23
14 13 13 11 11 11 11 11 11 12 12 11 11 11 10 10 9 9 9 9 9 9 8 7 7 6 6 6 5 5 4 4 5 5 4 5 5 5 4 3 4 4 5 5 4 4 5 6 7 6 6 6 6 7 7 6 8 11 9 7 8 7 5 7 10 11 11 12 13 13 13 12 12 12 12 13 13 14 15 18 21 22 22 22 22
14 14 15 14 12 12 11 11 11 12 12 12 12 11 11 11 10 9 9 9 10 10 9 9 8 7 6 7 6 6 5 5 5 5 5 5 5 6 5 5 5 5 5 6 6 6 7 8 7 7 6 6 5 5 6 6 7 9 9 7 8 8 3 5 8 10 10 11 13 13 12 11 11 11 12 13 14 15 17 20 22 22 22 22 22
15 15 15 15 14 13 12 12 12 12 12 12 12 12 12 12 11 11 10 9 10 10 10 10 9 8 8 8 8 7 7 7 7 6 6 6 6 6 6 6 7 6 5 6 7 8 8 7 7 7 6 6 6 5 6 7 6 7 8 7 6 5 3 4 6 7 9 11 12 12 11 10 10 11 13 14 15 17 19 21 23 23 22 22 22
16 16 15 15 15 15 14 13 13 13 13 12 12 12 12 13 12 12 11 11 11 11 10 10 10 10 9 9 9 9 8 8 8 8 8 7 7 7 6 6 7 7 6 7 8 9 9 8 7 7 6 6 6 6 6 7 7 6 7 7 5 4 4 4 4 6 9 10 11 11 10 10 10 12 13 14 16 18 20 21 22 22 22 22 22
16 16 16 16 16 16 15 15 14 14 14 13 13 13 13 13 13 13 12 11 11 11 11 11 11 10 10 10 10 9 9 9 9 9 8 8 8 7 7 7 7 8 7 8 9 9 10 9 8 8 7 6 7 7 7 7 7 6 6 6 6 4 4 5 4 6 8 10 10 10 10 9 10 12 13 14 16 18 19 21 21 21 21 21 22
17 17 17 17 16 16 16 16 15 15 15 15 14 14 14 14 14 14 13 12 12 12 12 11 11 11 11 11 10 10 9 9 9 9 9 9 8 8 9 9 9 9 9 9 9 10 10 10 9 9 8 8 9 8 7 7 7 6 6 6 6 5 5 6 4 6 9 11 9 10 11 10 10 11 12 14 15 16 18 20 20 20 21 21 22
18 17 17 17 17 17 18 17 17 17 16 16 15 15 15 15 14 14 14 13 13 12 12 12 11 11 11 11 11 10 10 10 10 10 10 9 10 10 10 9 9 9 9 9 10 10 10 11 11 10 9 10 9 8 7 7 7 7 7 6 6 5 5 6 5 8 12 11 8 10 12 12 11 11 11 13 14 15 17 18 19 20 20 21 22
19 18 18 17 18 19 19 19 18 18 17 17 17 16 16 16 15 15 14 14 14 13 13 12 12 12 12 12 12 11 12 12 11 11 10 10 10 10 11 10 10 10 10 10 10 10 11 12 12 11 10 10 9 8 7 7 7 7 7 7 7 5 5 6 5 7 9 7 6 11 11 10 13 13 11 12 13 14 16 17 18 20 21 21 22
20 20 19 19 19 19 20 19 19 18 18 18 18 18 17 17 16 16 16 15 15 14 14 14 13 13 13 12 12 12 13 13 13 12 11 11 11 12 11 11 11 11 11 11 11 11 11 11 11 11 10 9 8 9 8 7 8 8 7 7 7 6 6 6 6 7 6 5 7 10 9 9 13 14 13 13 12 13 16 17 18 20 21 21 21
20 20 20 20 20 20 20 20 20 19 19 19 19 19 19 18 18 17 17 17 16 16 15 15 14 14 14 14 14 13 13 13 13 13 12 11 11 12 12 11 11 12 12 12 12 12 12 12 11 11 10 9 9 9 9 8 8 8 7 7 8 8 7 7 6 7 7 7 9 9 8 9 11 12 13 13 12 13 16 17 19 21 21 21 21
20 20 20 20 20 20 20 20 21 20 20 20 20 20 20 19 19 19 18 18 18 17 17 16 16 16 15 16 16 15 15 15 16 17 16 15 14 13 12 11 12 13 13 13 13 12 12 12 12 11 10 10 9 9 8 8 8 8 7 8 9 9 8 8 8 7 7 8 9 7 7 8 8 9 10 10 11 13 12 13 17 20 20 20 20
20 20 20 20 21 21 20 21 21 21 22 22 22 23 23 22 20 19 19 19 18 18 18 18 17 17 17 17 17 17 18 19 21 23 22 20 20 19 17 15 13 13 13 14 14 14 13 13 13 12 12 11 10 9 9 9 9 9 8 8 9 9 9 9 9 8 7 8 9 9 9 8 8 8 8 8 10 8 5 10 16 18 19 19 19
21 20 20 21 22 21 21 21 21 22 23 23 24 27 29 28 25 21 19 18 18 18 19 19 19 19 19 19 18 18 19 21 23 24 24 22 22 22 22 21 20 18 16 15 14 14 14 14 14 13 13 13 11 10 10 10 10 9 9 9 9 9 9 9 9 9 7 7 9 11 12 11 9 9 9 9 7 5 7 13 17 17 17 18 18
22 21 21 22 23 23 22 22 22 23 23 24 26 29 32 33 32 28 23 19 19 19 19 19 20 19 19 19 19 18 18 19 20 20 20 21 22 22 23 23 23 23 23 21 19 16 14 14 14 14 14 13 12 11 11 10 10 9 9 9 9 10 10 10 10 10 8 7 8 12 13 10 8 8 10 9 7 8 12 15 15 15 16 17 17
22 22 23 23 23 23 23 23 24 24 24 25 27 31 33 34 35 33 29 24 22 21 20 20 20 20 19 19 19 19 18 18 19 19 19 20 22 23 23 23 23 24 25 26 25 23 20 17 15 15 14 13 12 12 11 9 9 10 10 11 10 10 11 11 11 12 11 10 11 13 13 10 7 8 9 7 7 9 15 16 14 13 14 14 16
22 23 24 23 23 24 24 25 25 25 25 25 27 30 33 34 34 34 33 30 26 24 23 22 21 21 20 20 19 20 19 19 19 19 19 20 20 20 21 22 24 24 25 26 26 27 26 24 22 20 17 15 14 13 12 10 11 12 12 12 11 11 12 13 14 15 15 14 13 13 13 12 9 9 9 6 6 7 13 15 13 12 12 13 14
21 22 23 23 23 24 24 25 25 25 26 26 28 30 32 34 33 33 33 33 29 26 25 25 24 23 22 22 21 21 21 21 21 21 20 19 18 18 18 19 20 21 22 23 24 25 26 27 27 25 22 19 18 16 15 14 13 13 13 13 13 13 13 14 15 16 16 15 13 12 11 11 9 9 9 5 5 5 11 14 13 11 10 11 13
21 21 22 22 23 24 25 25 24 25 26 27 29 31 33 34 33 31 33 33 30 28 26 26 26 25 25 24 24 24 23 23 24 25 24 21 19 18 18 18 18 19 20 21 22 23 23 23 24 24 22 21 20 20 19 17 15 13 12 13 14 13 13 13 14 14 14 13 11 11 10 11 10 10 9 6 4 5 9 13 13 10 8 10 11
21 21 21 21 21 22 23 24 25 26 26 27 29 32 33 33 33 32 33 32 29 27 27 27 27 26 26 26 26 25 25 25 26 27 27 26 23 20 19 19 19 20 20 20 21 23 24 23 22 22 23 23 23 23 24 23 21 17 14 14 15 15 15 14 13 14 13 11 10 10 11 11 10 10 9 6 6 6 8 11 13 10 7 7 9
21 21 21 21 21 21 23 24 26 26 26 26 29 31 33 33 33 34 33 29 25 25 26 27 27 27 28 30 30 29 27 27 28 27 27 27 25 23 21 21 21 21 21 19 20 21 22 21 21 21 23 25 25 25 25 25 24 22 19 18 17 16 16 15 15 15 13 13 13 11 11 11 10 10 9 7 8 8 7 11 12 10 6 5 7
19 20 20 21 21 21 22 23 25 26 26 25 27 30 32 33 33 35 33 28 24 25 25 24 26 26 27 30 33 35 34 33 31 30 29 28 26 23 21 21 22 23 22 20 19 19 19 18 18 19 21 22 24 25 26 25 25 24 24 23 20 18 17 17 16 14 12 12 11 9 9 10 10 9 8 8 7 5 7 9 9 6 3 3 4
Wind_Direction
104 102 100 98 93 92 91 91 94 95 96 95 92 90 87 83 80 80 79 80 82 85 90 96 99 97 97 98 100 97 94 96 96 99 97 102 100 55 64 108 131 152 169 151 123 72 28 5 356 355 351 349 350 345 340 337 334 333 333 332 330 326 321 317 316 317 318 319 320 324 329 333 336 335 335 335 335 335 334 334 333 333 331 328 332
104 103 102 100 95 90 86 88 89 90 91 91 88 86 86 82 79 80 77 76 78 78 81 86 91 94 94 96 98 97 97 99 101 106 103 103 107 73 56 71 85 99 130 162 171 276 328 337 337 343 339 332 330 330 330 327 325 325 324 324 322 317 315 314 314 313 313 316 319 322 325 327 329 330 330 331 332 331 327 328 329 327 324 321 322
104 105 106 101 97 92 87 88 86 85 86 86 85 81 82 78 73 74 73 75 77 73 77 85 91 93 92 93 95 97 97 101 105 106 105 102 108 101 70 69 73 76 89 102 146 246 291 301 310 313 306 308 312 314 315 315 315 318 320 318 316 312 310 311 311 310 312 318 319 320 321 323 326 327 328 329 326 325 323 324 322 317 316 314 315
102 100 102 97 93 93 89 85 84 85 83 82 82 80 82 78 69 65 68 76 81 76 77 85 88 92 95 95 94 96 97 99 100 98 100 98 103 110 101 83 73 69 75 73 68 53 29 349 332 313 299 297 301 303 304 306 306 309 310 307 307 305 303 304 306 306 311 317 317 317 318 319 320 320 321 320 315 315 315 316 314 308 306 306 306
99 95 95 92 89 89 89 85 81 82 84 82 82 84 87 86 78 72 73 77 83 78 72 79 84 91 97 97 94 94 97 97 96 97 99 100 102 106 109 111 77 53 52 49 43 30 17 3 347 336 326 316 307 303 299 301 302 299 297 296 297 297 296 298 298 302 307 312 313 313 314 314 314 312 314 313 309 307 307 308 305 301 299 300 301
101 95 91 93 93 88 88 87 84 84 88 87 89 96 91 89 89 84 83 82 81 73 65 74 83 90 92 93 94 92 93 92 92 94 96 97 100 101 102 107 102 73 35 25 28 25 14 1 351 342 336 332 323 314 302 292 289 288 288 287 289 289 291 292 293 298 302 304 307 309 309 310 308 307 309 308 306 303 302 301 298 296 294 295 296
105 99 90 93 96 93 92 88 89 91 92 90 94 103 93 84 81 81 90 83 78 73 69 75 86 95 92 90 92 88 89 89 88 95 99 96 95 97 96 95 99 100 71 12 9 17 16 360 349 348 342 338 334 326 317 301 288 282 281 282 282 283 286 289 291 295 298 298 300 302 303 304 302 304 305 303 303 301 299 297 292 292 292 292 291
107 102 95 91 91 93 96 96 98 98 98 94 94 102 94 86 71 70 85 73 69 71 71 82 93 98 98 99 96 89 86 89 94 95 92 91 91 95 92 91 86 61 61 43 357 354 7 11 356 351 349 343 338 332 324 316 305 293 290 289 288 292 296 299 302 304 307 304 303 303 303 303 304 306 306 305 305 305 306 304 295 290 288 288 288
112 105 97 89 89 93 99 106 111 109 105 99 98 98 87 87 83 74 81 72 77 77 73 84 91 95 100 99 92 83 85 89 95 92 87 90 95 96 89 87 82 60 52 50 49 333 349 5 7 1 1 356 348 344 337 328 324 315 311 311 309 312 315 317 321 325 326 324 323 323 319 317 317 316 314 313 312 310 312 312 305 298 293 289 287
130 118 99 90 91 95 104 112 116 116 113 107 102 98 92 96 100 95 88 81 78 75 70 74 81 83 80 79 78 71 81 102 111 112 116 111 95 93 92 83 70 74 69 20 9 308 327 343 353 1 3 4 357 351 354 352 345 340 336 334 330 328 327 326 328 330 331 332 333 333 330 328 327 325 323 320 318 316 316 314 311 308 303 299 294
150 143 120 104 100 100 110 115 115 114 113 116 110 105 98 92 101 111 118 128 87 70 67 64 69 67 56 59 71 67 72 108 152 151 149 109 89 78 91 94 75 52 54 38 327 320 320 320 329 335 339 350 359 355 354 356 354 352 349 345 341 334 330 328 327 327 328 329 331 332 332 331 330 329 328 326 324 322 320 318 316 314 310 307 303
153 154 148 136 111 107 114 115 113 111 108 114 115 110 105 94 97 96 112 155 150 112 77 59 46 49 40 37 51 73 126 118 195 178 166 131 106 77 56 88 87 68 58 77 357 341 344 321 309 311 311 324 348 359 355 352 351 352 350 346 343 338 335 334 332 332 331 332 333 333 335 335 334 333 332 330 329 327 325 323 321 318 316 312 308
150 153 151 147 126 110 110 110 112 113 110 115 113 108 107 99 97 101 119 153 160 156 97 49 18 29 29 37 51 72 125 151 190 179 167 151 135 108 82 88 94 100 101 59 15 2 334 314 312 315 308 308 327 343 348 354 354 353 350 345 344 341 341 341 339 338 336 337 336 335 337 336 335 334 332 331 330 330 328 326 325 323 321 318 313
151 153 150 144 133 118 109 114 119 124 128 132 127 122 116 107 120 154 143 133 121 110 96 22 337 43 23 28 83 93 95 130 178 170 161 149 145 123 103 88 84 79 77 45 354 347 329 327 322 315 310 304 306 315 326 331 335 345 348 344 345 344 343 343 341 340 337 335 334 332 332 330 330 328 327 327 326 326 325 324 324 323 322 320 318
167 162 156 147 139 132 129 133 137 144 146 144 146 146 143 151 166 157 154 142 122 105 96 32 5 34 22 28 77 95 93 85 103 138 145 130 143 127 102 69 86 68 18 349 314 333 335 330 324 317 313 310 307 308 310 305 317 337 346 343 342 340 339 337 335 333 330 329 327 325 325 323 323 321 321 320 319 319 319 319 318 318 318 317 317
188 174 164 155 153 151 144 149 162 168 162 156 165 170 167 177 166 143 196 148 125 126 108 67 34 15 2 29 43 75 77 73 93 122 138 131 142 114 88 33 81 61 337 317 323 325 314 309 313 320 329 328 322 317 316 313 320 336 346 343 340 335 332 329 326 325 323 321 320 319 318 317 316 315 314 313 313 314 313 314 313 313 313 312 313
197 186 175 165 166 167 160 163 173 178 176 170 169 171 169 173 168 158 190 17 101 124 122 82 51 27 7 14 19 55 45 36 76 83 122 130 133 101 79 353 64 61 329 314 329 310 296 328 311 305 331 340 334 323 317 317 322 333 338 336 334 328 324 321 319 318 317 316 316 315 314 313 311 310 310 310 310 310 309 309 308 308 308 308 308
199 192 184 178 175 173 174 177 175 180 185 182 169 168 168 167 173 175 176 195 359 62 119 100 60 46 29 42 14 26 29 6 43 76 81 89 106 117 102 34 79 93 66 21 13 349 29 28 15 7 360 334 326 321 318 320 324 328 326 322 322 320 317 316 315 314 314 314 315 316 315 313 312 310 310 309 308 306 305 304 304 303 303 302 302
196 192 189 186 184 179 181 181 177 180 181 182 182 175 162 160 168 172 174 180 281 312 186 103 72 80 86 69 15 10 28 13 32 95 117 77 5 124 95 80 99 94 67 51 70 72 56 39 47 57 33 358 341 330 322 315 316 319 313 305 303 303 303 304 305 305 306 308 311 314 316 315 315 314 312 310 308 305 303 302 302 301 300 299 299
194 192 191 192 193 188 186 184 180 181 181 183 186 178 156 156 164 165 178 198 211 267 303 330 323 124 98 21 22 22 28 39 49 43 80 104 140 108 73 79 88 70 49 30 44 68 76 53 36 50 48 26 10 1 353 340 337 340 331 318 308 303 302 300 300 300 301 305 309 312 315 316 315 315 313 311 309 307 306 307 306 305 302 300 300
194 195 193 197 202 197 192 188 184 184 186 186 176 177 170 161 172 172 179 200 208 239 264 286 286 186 142 318 14 22 13 62 97 91 50 73 121 112 97 106 85 63 27 7 28 48 71 72 66 61 50 34 23 18 16 8 9 9 348 336 332 327 324 320 315 313 313 314 316 315 315 315 315 315 314 312 311 311 313 313 312 309 307 307 310
196 199 197 203 206 201 198 193 190 190 186 185 177 180 184 174 182 183 180 193 201 226 242 255 269 262 236 241 243 228 155 82 266 67 64 32 316 15 96 67 68 80 26 359 11 21 43 76 110 72 43 26 22 16 11 10 14 7 347 341 343 342 341 337 331 328 325 322 320 319 318 318 318 316 314 313 312 314 314 314 315 315 317 321 326
200 201 199 206 208 203 203 198 193 191 184 186 187 185 187 179 182 186 187 197 201 220 239 242 241 243 244 233 227 218 176 168 181 51 37 29 337 327 54 27 360 62 43 4 345 6 98 117 83 55 33 18 16 6 0 3 358 351 347 346 347 346 342 338 335 331 328 326 323 322 322 321 320 317 316 316 317 318 319 321 324 327 332 335 338
205 206 203 205 207 203 205 204 198 195 189 189 191 188 187 180 183 190 192 195 199 215 228 234 228 231 236 229 232 230 200 210 192 164 168 55 358 327 36 32 334 47 44 18 45 112 113 124 81 44 24 13 10 1 357 353 339 342 349 352 346 345 339 332 331 327 325 327 327 326 326 326 326 324 324 326 327 329 330 333 336 339 342 343 344
207 209 208 205 206 205 206 208 206 202 196 191 189 191 193 190 194 200 198 195 200 215 228 236 232 233 238 231 238 243 218 225 231 197 192 149 321 342 11 343 292 68 54 17 38 152 131 112 105 38 21 7 4 3 356 352 343 343 351 356 340 338 339 330 326 326 328 334 337 337 336 335 335 334 334 335 335 338 341 344 346 348 348 348 349
210 209 211 210 209 209 208 211 213 210 206 201 195 194 198 201 205 210 210 202 207 221 231 237 233 233 242 241 247 252 240 224 223 238 254 251 12 18 6 330 317 54 94 54 10 159 103 116 140 37 22 4 360 2 354 351 345 345 358 6 336 332 339 336 332 338 347 351 349 347 342 339 340 339 340 341 342 346 349 352 353 353 352 351 351
210 209 211 212 213 214 212 213 216 216 212 209 204 202 204 207 210 216 220 213 214 227 230 230 230 228 234 245 253 249 248 244 227 233 275 326 8 7 359 341 332 349 91 111 95 81 62 133 139 39 13 1 356 351 351 352 343 347 1 4 338 333 338 341 348 356 360 355 352 350 345 343 343 344 346 347 350 354 355 357 356 354 354 352 352
211 211 212 214 216 215 215 217 218 219 218 215 212 210 209 212 214 218 224 222 218 224 229 228 228 230 230 236 247 246 242 247 245 246 279 317 339 341 336 336 338 334 326 352 52 110 9 297 247 48 1 354 349 339 346 347 344 352 357 350 345 337 330 340 354 356 359 359 359 358 351 348 348 350 355 356 358 358 357 357 356 354 354 353 354
217 216 216 217 217 216 218 219 219 220 221 218 216 214 213 218 222 222 226 227 223 224 231 233 231 231 230 226 234 246 241 241 249 247 251 291 308 309 314 321 324 320 316 336 328 306 315 320 316 351 360 345 335 331 338 334 340 354 353 342 351 338 317 338 353 357 4 6 4 1 352 349 353 358 2 1 359 357 356 357 356 355 355 356 358
222 222 219 218 219 217 217 219 220 221 222 220 217 215 216 223 228 229 231 232 231 231 231 236 238 236 234 232 235 244 241 239 247 247 242 261 280 287 292 290 291 299 309 318 312 311 318 314 316 336 343 332 326 328 335 327 333 351 354 338 346 337 309 326 347 355 3 5 2 359 354 353 359 5 5 1 358 356 357 358 357 357 359 1 1
222 223 220 218 220 218 215 217 220 221 222 221 218 214 216 222 227 230 230 230 235 238 237 237 238 236 234 237 239 243 246 247 253 256 251 255 265 271 274 272 268 275 291 297 295 306 313 309 314 323 321 318 320 323 331 326 326 345 353 333 340 353 320 308 334 346 352 358 0 359 359 1 2 6 5 1 358 357 358 359 359 0 3 4 5
220 221 221 221 222 218 215 215 216 219 220 221 220 217 218 221 226 231 229 227 233 239 241 239 237 236 235 240 243 243 245 247 253 259 255 253 258 262 264 265 264 261 267 278 282 291 300 303 307 311 312 314 313 313 324 326 325 340 348 331 335 356 340 293 319 336 344 353 360 3 5 5 4 4 4 1 359 358 359 359 0 3 5 7 7
219 220 221 221 222 220 218 216 215 216 217 219 221 220 221 222 225 230 230 229 233 238 241 241 241 240 239 243 246 246 248 250 253 256 255 251 249 250 251 251 256 256 251 262 277 286 294 299 300 302 308 311 308 311 320 323 325 333 340 335 331 340 330 300 309 326 339 347 357 8 9 3 1 0 1 1 359 357 358 359 0 3 6 8 9
219 221 221 221 221 221 221 218 216 216 215 218 221 222 224 225 226 229 229 228 232 236 239 240 241 242 241 243 245 246 247 248 251 254 254 251 248 247 246 247 253 255 247 253 269 281 288 291 293 294 295 296 299 309 315 317 318 321 328 333 331 325 319 312 299 307 327 340 352 6 9 0 357 356 356 357 356 356 356 356 359 2 5 8 10
219 222 223 222 222 221 221 220 218 218 218 219 223 223 224 226 227 230 230 228 231 234 236 238 239 241 242 244 245 246 246 246 249 253 254 253 253 254 253 253 257 259 256 253 258 271 283 288 289 292 294 294 296 301 306 307 305 307 317 324 327 320 309 310 293 286 312 330 340 356 4 359 353 350 350 351 351 353 353 353 356 1 4 8 10
219 221 222 222 223 221 222 222 220 221 222 222 225 226 225 227 229 231 232 231 232 233 235 238 239 241 243 245 248 248 249 250 250 252 253 250 248 250 252 252 252 255 256 253 252 260 274 281 283 287 291 294 293 292 297 301 296 293 300 309 317 319 310 310 283 263 297 318 326 342 352 352 349 343 341 343 346 349 350 350 354 359 3 7 10
218 219 219 220 221 221 222 224 223 223 224 224 225 227 227 227 229 231 233 233 233 234 236 238 239 242 244 247 249 249 249 250 250 252 253 250 249 249 250 249 247 249 251 249 249 254 263 273 279 283 285 286 288 287 286 291 293 291 289 289 296 304 313 316 287 269 292 305 313 329 336 339 340 334 330 334 339 343 346 348 353 357 2 6 9
216 217 217 217 220 222 224 226 226 226 226 225 226 227 228 228 228 230 233 234 236 237 238 239 239 241 244 246 248 248 248 249 250 252 252 249 251 251 251 250 247 247 248 247 249 251 256 265 272 276 279 279 281 283 278 276 284 289 289 287 285 283 300 317 301 279 282 277 293 317 319 323 332 331 325 327 332 336 340 345 351 355 359 5 9
215 216 216 217 218 222 225 227 227 227 226 226 227 227 228 228 228 229 231 234 238 239 241 242 241 242 244 246 247 246 245 247 248 250 250 251 252 252 250 250 247 246 248 248 248 249 253 260 266 270 275 275 275 278 275 271 273 274 274 280 287 283 286 301 298 284 272 254 277 297 296 306 323 325 322 323 327 331 335 340 349 354 356 2 8
216 216 217 217 218 222 226 227 228 227 225 226 227 228 229 229 228 228 230 233 236 239 242 243 244 245 247 248 249 248 246 246 244 245 247 248 250 253 251 249 246 246 248 250 250 250 253 259 264 268 272 273 271 273 272 265 264 266 265 273 286 287 284 287 286 278 274 271 277 280 283 300 309 314 324 328 324 327 333 338 346 352 353 358 5
219 219 220 219 220 222 224 225 227 227 226 227 227 226 227 227 228 230 231 233 236 239 241 244 245 246 248 251 252 251 249 246 245 247 252 252 251 253 252 251 249 247 248 250 249 249 252 256 259 263 266 266 265 265 265 260 263 270 272 274 280 283 286 288 286 275 266 274 285 279 276 286 285 296 321 322 311 319 329 330 337 344 348 355 3
221 220 221 222 223 224 224 224 225 225 228 229 228 228 229 228 227 229 232 233 235 237 239 243 245 246 248 251 253 253 251 250 252 257 262 262 259 256 253 250 249 249 250 252 249 248 250 252 256 259 261 263 264 265 267 267 267 269 270 274 279 284 290 290 288 282 266 270 287 291 286 282 273 284 303 300 299 308 301 306 324 337 344 352 1
222 221 222 223 225 227 227 226 226 226 229 229 229 232 236 237 234 231 232 235 235 236 238 241 243 246 249 251 253 254 252 252 256 262 266 266 262 259 256 252 249 247 248 251 253 252 252 252 256 258 261 265 265 265 270 273 271 270 272 277 281 284 288 289 290 291 280 272 283 290 292 284 268 275 290 289 293 281 268 298 321 334 341 350 360
223 222 224 224 226 228 229 230 230 230 231 231 230 235 240 243 243 239 235 236 238 238 239 240 242 245 248 250 251 252 250 247 250 255 262 266 265 261 258 255 253 249 247 248 251 252 255 258 261 260 260 263 264 262 265 272 275 275 275 275 274 277 280 281 286 290 290 288 285 286 294 288 260 268 287 281 263 262 277 300 320 331 339 350 359
225 225 225 225 226 228 229 232 233 233 234 233 232 236 240 244 246 243 239 237 238 240 241 241 242 243 245 247 249 250 250 248 246 245 247 255 263 265 262 259 256 252 250 249 248 248 251 257 262 262 261 262 262 261 262 266 271 272 273 272 270 271 275 275 278 282 285 289 286 282 289 289 262 267 289 273 224 249 284 302 317 326 338 351 357
225 225 227 226 226 227 228 230 232 234 236 235 233 237 241 244 246 245 242 239 238 240 242 242 243 243 243 244 245 247 247 245 243 241 239 242 249 256 259 260 257 254 253 252 251 250 249 248 250 254 256 257 257 258 259 257 258 262 265 269 270 271 273 274 276 277 274 274 274 273 280 283 271 273 287 267 196 230 283 301 312 321 334 349 357
227 226 228 228 227 227 227 229 232 235 237 236 235 236 240 244 246 245 244 241 239 239 241 242 242 243 242 242 243 244 244 242 240 239 239 238 239 242 245 249 251 251 249 249 249 249 248 245 245 246 249 252 254 257 258 255 254 257 259 264 269 270 272 274 274 272 269 263 254 254 269 279 276 277 281 260 193 223 273 290 302 315 330 346 357
231 230 229 229 229 228 228 229 231 236 238 237 236 237 240 243 245 244 244 242 240 239 240 241 241 241 241 241 241 242 243 242 242 242 241 239 239 242 243 243 245 246 245 244 244 244 243 241 240 240 243 247 248 248 249 248 249 254 262 266 265 262 263 268 268 268 271 265 242 233 254 273 276 279 279 254 206 225 257 275 293 310 326 341 353
235 233 231 231 231 230 231 230 230 234 238 237 236 238 240 242 242 242 242 240 238 237 239 240 240 240 240 240 239 241 242 242 243 244 245 243 240 241 244 245 246 247 247 247 248 249 249 247 245 242 243 246 246 245 245 246 247 249 256 261 259 258 260 261 263 267 272 272 256 241 250 266 272 277 276 248 228 247 247 249 270 294 319 338 348
237 238 236 235 235 233 232 232 231 234 238 238 237 238 241 241 240 240 240 237 235 237 238 239 240 240 241 241 240 240 240 242 244 244 245 244 240 237 241 244 246 248 247 246 249 252 253 253 252 251 250 250 249 247 246 247 247 244 244 245 249 257 260 259 264 270 270 269 267 253 247 260 269 269 267 255 249 253 232 224 249 282 309 329 345
250 248 243 240 240 238 235 234 234 235 239 240 238 239 241 241 240 239 237 234 234 236 237 238 240 240 240 242 243 243 243 243 244 243 243 242 238 234 237 241 244 246 247 245 247 250 247 242 241 244 249 253 254 251 249 249 246 241 238 238 242 250 255 257 264 268 268 270 264 233 223 251 268 259 252 260 265 239 185 198 231 256 265 281 321
Height
873 873 874 874 874 875 875 876 877 878 878 879 879 879 879 879 879 879 879 879 879 880 880 880 880 880 880 881 881 881 882 882 882 882 883 883 883 882 882 882 882 882 883 883 883 883 883 883 883 883 883 883 883 882 882 882 882 882 881 881 881 881 880 880 879 879 878 878 877 877 876 875 874 874 873 872 872 871 871 870 869 869 868 867 866
873 874 874 875 875 875 876 876 877 878 878 879 879 879 880 880 880 880 880 880 880 880 880 880 880 880 880 880 881 881 882 882 882 882 882 883 883 883 882 882 882 882 882 882 883 883 883 883 883 883 883 883 883 882 882 882 882 882 881 881 881 880 880 879 879 878 878 877 877 876 875 875 874 873 873 872 871 871 870 870 869 868 867 866 866
874 875 875 876 876 876 877 877 878 878 878 879 879 880 880 880 880 881 881 881 881 881 880 880 880 880 880 880 881 881 882 882 882 882 882 883 883 883 882 882 882 882 882 882 882 882 882 883 883 883 883 883 882 882 882 882 882 882 881 881 881 880 879 879 878 878 877 877 876 875 875 874 873 872 872 871 871 870 870 869 868 867 867 866 865
875 875 876 876 877 877 878 878 878 878 879 879 880 880 880 881 881 881 882 881 881 881 880 880 880 880 880 881 881 881 882 882 882 882 882 883 883 883 883 882 882 882 882 882 882 882 882 882 882 882 882 882 882 882 882 882 882 881 881 881 880 880 879 878 878 877 877 876 876 875 874 873 873 872 871 871 870 870 869 868 868 867 866 865 865
875 876 876 877 877 877 878 878 879 879 879 880 880 881 881 881 882 882 882 881 881 881 880 880 880 881 880 881 881 882 882 882 882 882 882 883 883 883 883 883 882 882 882 882 882 882 882 882 882 882 881 881 881 881 881 881 881 881 880 880 879 879 878 878 877 876 876 875 875 874 873 873 872 871 870 870 869 869 868 868 867 866 865 865 864
876 876 877 877 877 878 878 879 879 880 880 880 881 881 882 882 882 882 882 881 881 881 881 880 881 881 881 881 881 882 882 882 882 882 882 883 883 883 883 883 883 882 882 882 882 882 882 881 881 881 881 881 881 881 880 880 880 880 879 879 878 878 877 877 876 876 875 874 874 873 872 872 871 870 870 869 869 868 868 867 866 865 865 864 864
876 877 877 878 878 878 879 879 879 880 880 881 881 881 882 882 882 882 882 881 882 881 881 881 881 881 881 881 882 882 882 882 882 882 882 882 883 883 883 883 883 883 882 882 882 881 881 881 881 881 881 881 880 880 879 879 879 879 878 878 877 877 876 876 875 875 874 873 873 872 871 871 870 869 869 868 868 867 866 866 865 865 864 863 863
876 877 878 878 878 879 879 879 880 880 881 881 881 882 882 882 882 882 882 882 882 882 881 881 881 881 881 881 882 882 882 882 882 882 882 882 882 882 882 882 882 882 882 882 882 881 881 881 881 880 880 880 879 879 879 878 878 877 877 877 876 876 875 875 874 874 873 872 872 871 870 870 869 869 868 867 867 866 865 865 864 863 863 862 862
877 877 878 878 879 879 879 880 880 880 881 881 882 882 882 882 882 882 883 883 882 882 882 881 882 881 881 881 881 882 882 882 882 882 882 882 882 882 882 882 882 882 882 882 882 881 881 880 880 880 879 879 879 878 878 877 877 877 876 876 875 875 874 874 873 873 872 871 871 870 869 869 868 867 867 866 866 865 864 863 863 862 862 861 861
877 877 878 878 879 879 880 880 880 881 881 882 882 882 882 882 882 883 883 883 882 882 882 882 882 881 881 881 881 881 881 881 882 881 882 882 881 882 882 882 882 882 882 882 881 881 881 880 879 879 879 878 878 877 877 877 876 876 875 875 875 874 874 873 872 872 871 870 870 869 868 868 867 866 866 865 865 864 863 862 862 861 860 860 859
877 877 878 878 879 879 880 880 880 881 881 881 882 882 883 883 883 883 883 883 883 882 882 882 882 882 881 881 881 881 881 881 881 881 881 881 881 881 881 881 882 881 882 881 881 880 880 880 879 879 878 878 877 877 876 876 876 875 875 874 874 873 873 872 871 871 870 870 869 868 867 867 866 865 865 864 863 863 862 861 860 860 859 858 857
877 877 878 878 879 879 880 880 881 881 881 881 882 882 883 883 883 883 883 883 883 883 882 882 882 882 881 881 881 881 881 881 881 881 881 881 881 881 880 881 881 881 881 881 880 880 880 879 879 879 878 877 877 876 876 876 875 875 874 874 873 872 872 871 871 870 869 869 868 867 866 866 865 864 864 863 862 862 861 860 859 858 858 857 856
877 877 878 878 879 879 880 880 881 881 881 881 882 882 883 883 883 883 883 883 883 882 882 882 882 882 882 881 881 880 880 881 880 880 880 880 880 881 881 880 880 880 880 880 880 880 879 879 879 878 878 877 877 876 876 875 875 874 874 873 872 872 871 870 870 869 868 868 867 866 866 865 864 863 863 862 861 861 860 859 858 857 856 855 854
877 877 878 878 879 879 880 880 881 881 882 882 882 882 882 883 883 883 883 882 882 882 883 883 882 881 881 880 880 880 880 879 879 879 879 879 879 879 880 879 879 880 880 880 880 879 879 878 878 878 877 877 877 876 875 875 874 874 873 873 872 871 871 870 869 868 868 867 866 866 865 864 863 862 862 861 860 859 858 857 856 855 854 853 853
876 877 877 878 879 879 880 880 881 881 881 882 882 882 883 883 883 883 882 882 882 882 883 883 882 881 881 882 881 880 881 879 878 878 878 878 878 878 879 878 879 879 879 879 879 878 878 878 878 877 877 877 876 876 876 875 874 873 873 872 871 871 870 869 869 868 867 866 866 865 864 863 862 861 860 860 859 858 857 856 855 854 853 852 851
876 877 877 878 879 879 880 881 881 881 882 882 882 882 883 883 883 883 882 881 882 883 883 883 883 882 882 882 880 880 884 880 877 878 877 877 878 877 878 878 877 879 879 878 878 877 877 877 877 877 876 876 876 875 875 875 874 873 872 871 871 870 870 869 868 867 866 865 865 864 863 862 861 860 859 858 857 856 855 854 853 852 851 850 849
876 877 877 878 879 879 880 881 881 881 881 882 882 882 882 882 883 883 882 882 882 882 883 883 883 883 882 882 882 884 884 879 878 879 877 876 877 877 878 877 877 878 878 877 877 877 876 876 876 876 876 875 875 875 874 874 873 872 872 871 870 870 869 868 867 867 866 865 864 863 862 861 860 858 857 856 855 854 853 852 851 850 849 847 846
876 877 877 877 878 879 879 880 881 881 881 881 882 882 882 882 882 883 883 883 883 883 883 883 883 883 882 882 883 884 882 879 880 881 878 876 876 876 877 876 876 877 877 876 876 875 875 875 875 875 875 875 874 874 874 873 873 872 871 871 870 869 868 868 867 866 865 864 863 861 860 859 858 857 855 854 853 852 851 850 849 848 846 845 844
876 876 877 877 878 878 879 880 880 881 881 881 881 881 881 882 882 883 883 883 884 883 883 883 883 883 882 882 882 881 881 881 881 881 881 880 877 875 875 875 875 875 875 875 874 874 875 875 874 874 874 874 874 873 873 873 872 871 871 870 869 868 868 867 866 865 863 863 862 860 859 858 856 855 854 852 851 850 849 848 847 846 845 844 842
876 876 876 877 877 878 878 879 879 880 881 881 881 881 881 882 882 883 883 883 884 884 883 883 882 882 882 882 882 882 882 881 880 880 881 881 878 875 875 875 874 875 875 874 874 874 874 874 874 874 874 874 873 873 873 872 871 870 870 869 868 867 866 865 864 863 862 861 860 859 858 856 855 853 852 851 849 848 847 846 845 844 843 842 841
875 876 876 877 877 878 878 878 879 880 880 881 881 881 882 882 882 882 883 883 883 884 884 884 883 882 882 882 882 882 881 881 880 879 878 880 879 875 874 875 874 875 875 874 874 874 874 874 874 874 874 874 873 873 872 872 871 870 869 868 867 866 865 864 863 862 861 860 859 858 856 855 853 852 851 850 848 847 846 845 844 843 842 841 839
875 875 876 877 877 877 877 878 879 879 880 880 881 881 881 882 882 882 883 883 883 883 883 884 883 882 882 882 882 882 882 881 880 879 878 880 878 874 873 874 873 874 875 874 874 874 873 873 873 873 874 873 873 873 872 871 870 870 869 868 867 866 865 864 862 861 860 859 858 856 855 854 852 851 850 849 847 846 845 844 843 842 841 840 839
874 875 875 876 877 877 877 878 878 879 879 880 880 881 881 881 882 882 882 883 883 883 883 883 883 883 882 882 882 882 882 881 880 880 879 879 878 875 873 874 873 873 874 875 874 873 873 873 873 873 874 873 873 873 872 871 870 869 868 867 866 865 864 863 861 860 859 858 857 855 854 853 851 850 849 848 846 845 844 843 842 841 840 839 838
873 874 875 876 876 877 877 877 878 878 879 879 880 880 880 881 881 882 882 882 882 883 882 882 882 882 882 881 881 881 881 881 880 880 880 880 879 876 874 875 874 873 874 874 874 873 873 873 873 873 874 873 873 872 872 871 870 869 868 867 866 865 864 862 861 860 858 857 856 854 853 852 851 850 848 847 846 845 843 842 842 841 839 838 837
872 873 874 875 876 876 877 877 878 878 878 879 879 880 880 880 881 881 881 882 882 882 882 882 882 881 881 881 881 880 880 880 879 879 879 879 879 877 876 875 873 872 874 874 873 873 873 873 873 874 874 873 873 872 872 871 870 868 868 867 865 864 863 861 860 859 858 856 855 854 853 851 850 849 848 847 845 844 843 842 841 840 839 838 837
871 872 873 874 875 875 876 877 877 877 878 878 879 879 879 880 880 881 880 881 881 881 881 881 881 881 881 881 881 880 880 880 880 879 878 878 878 877 877 876 873 872 873 875 874 872 873 873 873 873 874 873 873 872 872 871 870 868 867 866 865 864 862 861 859 858 857 856 855 854 852 851 849 848 847 846 845 844 843 842 841 840 839 838 837
869 871 872 873 874 874 875 876 876 877 877 877 878 878 878 879 880 880 880 880 880 880 880 880 880 880 880 880 880 880 880 879 879 879 879 879 878 878 878 878 876 874 872 873 873 873 873 873 873 874 874 873 873 872 871 871 870 868 867 866 865 863 861 860 859 858 857 856 855 853 852 851 849 848 847 846 845 844 843 842 841 840 839 837 836
868 869 871 871 873 873 874 875 875 876 876 877 877 877 878 878 879 879 879 880 880 880 880 880 880 880 880 880 880 880 880 880 879 879 880 880 879 880 879 879 880 879 875 874 873 873 873 872 872 873 874 873 873 872 871 870 869 868 867 866 865 863 861 860 859 858 857 856 855 853 852 850 849 848 847 846 845 844 843 842 841 840 838 837 835
867 868 869 870 871 872 873 874 874 875 875 876 876 876 877 877 878 878 879 879 879 879 879 879 879 879 879 879 880 880 880 880 880 879 880 880 880 880 880 879 880 880 879 879 876 873 873 873 872 872 873 873 873 872 871 870 869 867 867 866 865 863 860 859 858 857 857 856 854 853 852 850 849 848 847 846 845 844 843 842 841 839 838 836 835
866 867 868 869 869 870 871 872 873 874 874 875 875 875 876 876 877 877 878 878 878 878 879 879 878 878 879 879 879 879 879 880 880 879 879 880 880 880 880 880 880 879 879 880 878 874 873 873 872 872 872 872 872 871 870 870 868 867 866 865 864 862 860 859 858 857 856 856 855 853 852 850 849 848 847 847 846 845 843 842 840 839 837 836 834
864 865 866 867 868 869 870 871 872 872 873 873 874 874 874 875 875 876 876 877 877 878 878 878 878 878 878 878 879 879 879 879 879 879 879 879 880 879 879 879 880 879 878 879 878 876 874 873 872 872 872 872 871 871 870 869 868 866 865 865 863 861 859 858 858 857 856 856 855 853 852 850 849 849 848 847 846 845 843 842 840 838 837 835 833
862 863 864 866 866 867 868 869 870 870 871 872 872 872 873 873 874 874 875 876 876 877 877 877 877 877 877 878 878 878 879 879 879 879 878 879 879 878 879 878 878 878 878 878 877 876 874 873 872 872 871 871 870 870 869 869 867 866 865 864 862 861 860 858 857 857 856 855 855 853 852 851 850 849 848 848 846 845 843 842 840 838 836 834 833
860 861 862 863 865 866 866 867 868 869 870 870 871 871 871 872 872 873 874 874 875 875 876 876 876 876 877 877 877 877 878 878 878 878 877 877 877 877 877 877 877 877 877 877 876 874 874 873 872 871 871 870 870 869 869 868 867 866 865 864 862 861 861 859 857 856 856 855 855 853 852 851 850 849 849 848 846 845 843 841 840 838 836 834 832
857 859 860 861 863 864 864 865 866 867 868 868 869 869 870 870 871 871 872 873 873 874 874 875 875 875 876 876 876 876 876 876 876 876 876 876 875 875 875 875 875 875 875 876 875 874 873 872 872 871 870 870 869 868 868 867 866 865 864 863 862 861 860 860 858 856 855 855 854 853 852 851 850 849 848 847 846 844 843 841 839 837 835 834 832
855 856 858 859 861 861 862 863 864 865 866 866 867 867 868 868 869 870 870 871 872 872 873 873 874 874 874 875 875 875 875 875 875 875 874 874 874 874 874 874 874 874 874 874 874 873 872 871 871 870 869 869 868 868 867 866 866 865 864 863 862 861 860 859 858 855 854 855 854 853 852 851 850 849 848 847 845 844 842 841 839 837 835 833 831
852 854 855 856 858 859 860 861 862 863 864 864 865 866 866 867 867 868 868 869 870 870 871 871 872 872 873 873 873 874 874 874 874 874 873 873 873 873 873 873 873 873 873 873 872 872 871 870 870 869 869 868 867 867 866 866 865 864 863 862 861 860 859 858 857 854 854 854 853 852 851 850 849 848 847 846 844 843 842 840 839 837 835 833 831
850 851 852 854 855 856 857 858 859 860 861 862 863 863 864 865 865 866 866 867 868 868 869 869 870 871 871 871 872 872 872 872 872 872 872 872 872 872 872 871 871 871 871 871 871 871 870 869 868 868 868 867 866 866 866 865 864 863 862 861 860 860 859 858 856 854 852 852 851 851 850 849 849 848 847 846 844 843 841 840 838 837 835 833 831
847 848 849 851 852 853 854 855 857 858 859 860 860 861 862 863 863 864 865 865 866 866 867 867 868 868 869 869 870 870 870 870 870 870 870 871 870 870 870 870 870 870 869 869 869 869 868 868 867 867 866 866 865 865 864 864 863 862 861 860 859 859 858 857 856 853 851 850 849 849 849 848 847 847 846 845 843 842 841 839 838 836 835 833 831
843 845 846 847 848 850 851 852 854 855 856 857 858 858 859 860 861 862 862 863 864 864 865 865 866 866 866 867 867 867 868 868 868 868 868 869 869 868 868 868 868 868 867 867 867 867 866 866 865 865 864 864 864 863 863 863 862 861 861 859 858 857 857 856 855 853 851 850 848 847 847 847 846 845 845 844 843 842 840 838 837 835 834 833 831
840 841 843 844 845 846 848 849 850 852 852 853 854 855 856 857 858 859 860 861 861 862 863 863 863 864 864 864 864 865 865 865 865 866 866 867 867 866 866 866 866 866 865 865 865 864 864 864 863 863 862 862 862 862 861 861 860 860 859 858 858 856 856 855 854 853 852 850 849 847 846 846 845 844 843 843 842 841 839 837 835 834 833 832 831
837 839 840 841 842 843 844 845 846 848 849 850 850 851 853 854 855 856 857 858 859 859 860 860 861 861 861 862 862 862 862 863 863 863 864 864 864 864 864 864 864 864 864 863 863 862 862 862 861 861 861 860 860 860 859 859 858 858 857 857 856 855 854 853 852 852 851 850 849 848 847 846 845 844 843 842 841 840 839 836 835 834 833 832 831
834 836 837 838 839 839 841 841 843 844 845 845 846 847 848 850 852 853 854 855 856 856 857 857 858 858 859 859 859 859 859 860 860 860 860 861 861 862 862 862 862 862 862 861 861 860 860 859 859 859 858 858 857 857 857 857 856 856 856 855 855 854 853 852 851 850 850 849 849 848 847 846 845 844 844 843 842 841 840 837 835 834 833 831 830
831 832 833 835 835 836 837 838 839 839 840 841 842 843 844 846 848 850 851 852 853 853 854 854 854 855 855 856 856 856 856 856 856 856 856 857 858 858 858 859 859 860 859 859 858 858 858 857 857 857 856 855 855 855 855 854 854 854 854 854 854 853 852 851 850 849 849 849 848 847 846 845 844 843 843 842 842 841 839 837 835 834 833 831 830
828 829 830 831 832 833 834 834 835 835 835 836 837 838 839 841 843 845 847 848 849 849 850 850 851 851 852 852 853 853 853 853 853 853 853 853 853 854 854 855 855 856 856 856 856 856 856 856 855 855 854 854 854 854 854 853 852 852 852 852 852 852 851 850 849 848 848 847 847 846 845 843 842 842 841 840 841 840 838 836 835 834 832 831 830
824 825 826 827 828 829 830 830 831 831 831 832 833 834 835 836 838 840 842 844 845 846 846 846 847 847 848 848 849 849 849 849 850 850 850 850 850 850 850 851 851 851 852 852 853 853 854 854 854 853 853 853 853 852 852 852 852 851 851 851 850 850 849 848 847 847 846 846 846 845 843 842 841 840 839 838 838 837 836 835 834 833 832 831 829
820 821 822 823 824 824 825 826 827 827 827 828 829 830 830 832 833 835 837 839 841 841 842 842 843 843 843 844 844 845 845 846 846 846 847 847 847 847 846 846 846 847 847 848 848 849 850 851 851 851 851 851 851 850 850 850 850 850 849 849 848 848 847 846 845 845 844 844 844 842 841 840 839 838 838 837 836 835 834 833 833 832 831 830 829
816 817 818 819 820 820 821 822 822 822 823 823 824 825 826 827 829 831 833 835 836 837 837 838 838 839 839 840 840 840 841 841 841 842 843 844 844 844 844 843 843 843 843 843 844 845 846 846 847 847 848 849 849 848 848 848 848 848 847 847 846 846 845 844 843 842 840 839 840 840 839 838 837 836 836 835 835 834 833 832 832 831 830 829 828
812 813 814 815 815 816 817 818 818 818 818 819 820 821 822 824 826 828 829 830 831 832 832 833 833 834 835 835 835 836 836 836 836 837 839 840 841 841 841 840 840 840 839 839 840 841 842 842 843 844 844 845 845 845 845 845 845 846 846 845 844 844 843 842 840 838 837 836 836 837 836 836 835 834 833 833 833 833 832 831 831 830 829 828 827
808 809 810 811 812 812 813 814 814 814 814 814 816 817 818 820 822 824 825 826 827 827 827 828 828 829 830 830 830 831 831 831 831 833 834 836 837 837 837 837 837 836 835 836 836 836 837 839 840 840 841 841 842 841 841 842 842 843 843 843 842 841 840 838 837 835 834 833 833 833 833 833 833 832 832 831 830 831 831 829 828 828 828 827 826
805 806 806 807 808 808 809 809 810 810 810 810 811 812 814 816 818 819 820 822 823 823 823 823 824 824 824 824 825 826 826 826 827 829 830 832 833 833 834 834 833 832 832 832 833 832 833 834 835 836 837 837 838 837 837 838 838 839 840 839 838 838 836 835 834 832 831 830 830 830 830 831 831 830 830 829 828 828 829 828 827 827 826 826 825
804 804 804 804 804 805 805 805 806 806 806 806 807 808 809 811 813 814 816 818 818 818 818 819 819 819 819 819 819 820 820 821 823 824 826 827 828 829 830 830 829 828 828 829 830 830 830 831 831 832 833 833 834 833 833 834 834 834 835 835 835 835 834 832 831 831 829 827 827 827 828 829 829 828 828 828 826 826 827 827 826 826 825 825 824